Wind_Speed
17 16 17 17 18 20 20 20 19 19 19 19 18 18 18 18 17 17 17 18 18 18 18 17 17 17 17 16 15 15 14 15 15 16 17 18 18 19 20 21 21 22 23
18 18 17 17 17 18 19 20 19 20 20 20 21 21 20 20 20 20 19 19 20 19 19 18 17 17 16 16 15 15 15 15 15 16 17 17 18 19 20 21 22 22 23
18 18 19 18 17 18 19 20 20 21 21 22 22 23 23 23 23 23 21 21 21 20 20 19 18 18 17 17 17 16 16 16 16 17 18 19 20 21 22 23 23 23 24
18 18 19 18 18 19 19 20 20 22 22 22 23 24 24 24 24 24 23 22 22 21 21 20 20 19 19 19 19 18 17 16 15 17 19 19 21 22 23 24 25 25 25
19 19 19 18 19 20 21 21 21 22 22 23 23 23 24 24 24 24 24 23 23 23 22 22 21 20 20 19 18 18 17 16 15 17 19 21 22 24 25 25 26 26 26
21 20 20 20 21 22 22 23 23 23 24 24 24 24 24 25 25 25 25 24 24 24 23 22 21 21 20 20 19 19 18 16 16 18 20 22 23 25 27 27 27 27 26
23 23 22 22 22 23 23 23 23 23 24 25 25 25 25 25 25 26 26 25 25 25 24 23 21 20 20 20 20 18 17 16 17 20 22 24 25 27 28 29 29 28 28
26 25 24 23 23 23 24 24 23 23 23 23 23 24 24 25 25 25 25 25 25 25 24 23 21 20 20 20 19 18 17 17 19 21 24 25 25 25 26 26 27 28 28
27 26 25 24 25 24 24 24 24 23 23 22 22 22 23 23 24 23 22 23 24 24 23 22 21 20 20 20 20 20 20 20 21 23 24 25 25 25 25 25 25 25 25
28 27 26 26 26 25 25 25 25 25 24 23 22 22 22 22 21 21 20 20 20 22 23 23 22 22 22 22 23 23 24 24 25 25 26 26 25 25 25 24 23 22 23
29 29 28 28 27 27 27 28 28 27 26 25 23 22 22 22 20 19 18 18 19 20 22 24 25 25 25 26 27 28 28 29 30 30 30 29 27 27 26 26 25 24 23
30 32 32 31 30 30 30 30 31 30 28 27 25 23 23 23 21 19 18 18 19 20 22 24 26 28 29 30 30 31 33 34 35 35 34 33 32 30 29 29 28 27 26
30 31 32 32 32 32 32 33 33 32 31 29 28 26 24 24 23 21 19 19 21 22 22 23 24 27 29 30 32 33 34 36 37 37 36 36 35 34 33 32 31 31 31
29 29 31 31 32 32 33 34 35 34 33 32 30 28 27 26 25 24 23 21 22 23 24 24 24 24 25 27 28 30 31 33 35 37 37 38 37 37 36 35 34 33 33
29 29 30 30 30 31 32 33 34 35 35 34 32 31 29 28 27 27 26 24 24 24 25 25 25 25 26 27 29 30 31 32 33 34 35 36 37 38 37 36 36 35 34
32 32 31 31 30 30 31 32 33 34 35 35 33 32 31 30 29 29 28 27 26 26 26 26 26 27 28 29 30 31 32 33 33 32 32 33 33 34 35 36 35 34 34
34 34 33 31 31 30 29 30 30 31 33 33 33 33 31 30 30 31 30 29 29 28 28 28 29 29 30 31 32 33 34 34 34 33 32 31 31 32 33 33 33 33 33
37 36 34 33 32 31 30 30 29 29 30 31 32 32 31 31 31 32 31 31 31 31 31 31 31 32 32 33 34 35 35 35 35 34 33 32 31 32 32 33 34 35 37
38 38 36 35 34 32 32 32 30 29 28 29 31 31 31 31 32 33 33 33 33 34 34 34 34 33 33 34 36 36 36 36 36 35 35 34 35 36 37 38 39 40 41
39 40 38 37 36 35 35 35 33 30 29 29 29 30 32 33 33 33 34 34 34 35 35 35 35 34 34 36 37 37 37 37 37 36 36 37 38 40 42 44 45 46 47
41 41 41 40 39 38 38 37 36 34 33 32 31 31 32 33 33 33 33 34 34 34 34 34 35 35 35 36 37 38 37 38 38 38 38 38 40 42 44 47 48 50 50
43 43 44 43 43 41 40 40 40 41 39 36 34 32 32 33 33 33 33 32 33 33 33 34 35 35 36 36 37 38 38 39 39 40 40 41 42 44 46 48 50 51 51
45 46 46 47 47 46 45 44 44 44 42 39 37 34 35 36 36 35 33 32 32 33 33 34 34 35 36 36 36 37 38 39 40 40 42 43 44 46 48 49 50 50 49
47 48 49 50 50 50 50 48 46 45 44 43 42 41 40 40 39 37 35 34 34 33 33 34 34 35 35 36 37 37 38 39 41 42 43 44 46 47 48 49 49 49 49
50 52 52 52 53 53 54 52 50 48 47 47 47 46 45 43 42 40 38 36 36 36 35 35 35 35 36 36 37 38 39 40 41 43 44 45 46 47 48 49 50 51 52
54 56 57 58 58 58 58 57 55 52 50 49 49 48 48 47 46 44 41 40 39 38 37 36 36 36 37 38 39 40 40 41 42 43 44 45 46 48 50 52 53 54 54
Wind_Direction
256 257 258 261 264 265 265 263 261 257 254 255 258 261 267 272 275 277 280 278 275 276 275 269 263 260 261 266 271 274 275 274 275 276 277 279 282 283 283 282 281 281 282
258 259 259 261 264 264 264 264 262 258 255 254 257 261 265 269 272 275 277 278 274 274 274 270 265 262 264 267 270 271 272 273 276 279 280 281 283 285 285 284 284 284 284
262 262 262 264 267 267 265 265 266 264 261 260 261 262 263 265 268 271 272 273 271 269 269 268 265 263 265 268 270 272 274 277 280 282 284 285 286 288 288 287 286 286 286
260 261 263 266 267 268 268 268 269 269 268 267 267 266 264 265 266 267 268 269 267 264 264 264 264 263 264 267 270 271 273 275 279 282 284 286 286 286 286 285 285 285 285
255 257 261 264 264 265 267 268 268 270 271 271 270 269 267 265 265 266 266 266 264 261 260 260 261 262 264 267 268 269 271 273 276 279 283 286 288 287 285 284 284 283 283
251 254 257 259 260 263 266 268 268 270 271 271 271 272 270 268 267 266 265 266 264 261 259 259 258 260 262 265 266 268 271 273 276 280 286 289 290 288 285 284 283 282 282
250 252 254 255 257 260 264 268 269 271 274 274 275 276 276 274 271 268 267 266 265 263 261 259 258 259 261 264 267 268 269 273 279 285 289 292 292 290 287 285 283 281 280
249 252 255 256 257 260 265 269 272 275 278 281 282 281 280 278 273 269 267 268 268 266 263 261 261 262 263 264 264 264 266 273 282 288 293 297 297 297 294 291 286 281 278
252 254 256 258 259 261 266 271 275 278 280 283 286 285 282 278 273 269 268 269 269 268 265 262 261 261 261 260 260 262 267 273 280 286 292 296 297 298 298 296 292 285 279
253 255 255 257 259 262 266 270 274 277 279 281 282 284 282 278 273 271 270 270 270 268 265 262 259 257 256 256 258 262 267 272 278 282 287 291 294 294 295 295 293 288 283
249 252 253 255 258 262 265 268 272 276 278 279 279 280 279 277 274 273 273 274 274 272 269 265 260 256 255 255 259 263 268 272 276 279 282 284 287 289 289 288 288 285 282
245 248 251 254 257 260 263 266 269 273 276 277 277 278 278 276 273 271 275 279 279 278 275 271 265 261 259 258 261 265 269 273 275 277 278 280 281 283 284 284 283 280 278
246 249 251 253 255 258 261 263 266 268 271 274 275 276 277 277 275 273 275 279 281 282 280 278 275 270 267 266 267 270 273 275 277 276 276 276 278 280 281 282 282 279 276
250 251 252 253 255 258 260 262 265 267 268 270 272 274 274 275 276 275 276 279 283 284 282 281 280 279 277 276 277 279 280 280 280 278 276 274 275 276 279 280 280 279 276
249 251 252 253 254 257 259 262 265 266 268 269 271 272 272 273 275 276 278 281 283 283 282 282 282 283 284 285 286 286 287 286 284 283 281 278 276 276 277 278 278 277 275
249 250 250 250 252 254 258 262 264 265 266 266 267 268 269 271 273 275 277 279 281 282 283 284 284 285 286 287 288 288 288 289 287 286 284 283 281 280 279 278 278 277 276
249 250 251 251 251 252 255 259 262 264 265 265 265 266 268 269 270 272 275 277 280 282 283 283 284 286 288 290 290 290 289 289 288 285 284 284 283 281 280 279 278 277 276
248 250 251 251 252 252 254 256 258 260 262 263 263 263 265 266 268 269 272 275 278 280 281 282 284 286 288 290 291 291 290 289 289 285 282 281 281 280 279 278 279 279 279
246 248 249 250 250 251 253 255 256 258 260 262 262 262 262 263 264 267 270 273 276 278 280 281 284 286 288 291 292 292 291 289 289 285 280 278 279 280 280 280 281 282 282
244 246 248 249 250 250 252 255 257 258 258 258 258 258 259 261 264 267 270 273 275 278 280 281 282 284 288 291 293 293 293 290 289 286 282 279 279 280 281 282 283 284 284
244 245 248 250 250 250 251 254 257 257 255 254 254 255 258 261 264 267 270 273 275 277 279 280 281 284 288 290 292 293 293 291 289 288 286 283 282 282 283 283 284 284 284
246 246 247 248 250 250 251 252 253 253 254 253 253 254 258 260 262 265 269 273 276 277 278 279 281 284 287 290 292 293 293 292 290 289 288 287 286 285 285 285 285 284 283
250 249 248 248 249 250 250 250 250 251 254 256 256 256 256 257 260 264 268 272 275 276 277 279 281 284 288 290 291 293 294 293 292 290 290 289 288 288 287 287 286 284 283
255 254 252 250 249 250 250 250 250 252 254 256 256 255 255 257 260 264 267 269 272 274 276 279 281 284 287 290 292 293 294 294 293 292 291 291 291 291 290 289 287 285 284
258 257 257 255 253 252 251 251 251 251 251 253 255 257 257 259 261 263 266 269 271 273 275 277 280 283 286 288 291 292 294 294 294 294 295 295 296 295 294 292 290 288 287
260 259 258 257 255 254 252 251 251 251 251 252 254 256 257 258 260 262 266 268 270 272 274 276 279 282 285 287 289 291 292 293 294 295 296 297 297 297 296 295 293 292 290
Height
5866 5866 5867 5868 5868 5869 5869 5870 5870 5871 5871 5872 5873 5873 5873 5873 5873 5873 5873 5872 5872 5872 5872 5871 5871 5870 5870 5870 5870 5870 5869 5869 5868 5867 5866 5866 5866 5866 5865 5865 5865 5864 5863
5864 5864 5865 5866 5866 5866 5866 5866 5867 5867 5868 5869 5869 5870 5870 5871 5871 5870 5870 5870 5870 5869 5869 5869 5868 5868 5868 5868 5868 5867 5867 5866 5865 5864 5864 5864 5864 5863 5862 5862 5861 5861 5860
5862 5862 5863 5863 5864 5863 5863 5863 5864 5864 5865 5865 5866 5866 5867 5867 5868 5868 5867 5867 5867 5866 5866 5866 5866 5866 5865 5865 5864 5864 5864 5863 5862 5862 5861 5861 5860 5860 5859 5858 5858 5857 5856
5859 5859 5860 5861 5861 5861 5860 5861 5861 5861 5862 5862 5862 5863 5863 5863 5864 5864 5864 5864 5863 5863 5863 5863 5863 5862 5862 5862 5861 5861 5860 5860 5859 5858 5858 5858 5857 5856 5855 5855 5854 5853 5852
5856 5856 5857 5858 5858 5858 5858 5858 5858 5859 5859 5859 5859 5859 5859 5859 5860 5860 5860 5860 5860 5860 5860 5859 5859 5859 5859 5859 5858 5858 5857 5857 5856 5855 5854 5854 5853 5852 5851 5850 5849 5849 5848
5852 5853 5854 5855 5855 5855 5855 5855 5856 5856 5856 5856 5856 5856 5856 5856 5856 5856 5856 5856 5856 5856 5856 5855 5855 5855 5855 5855 5855 5855 5854 5853 5852 5852 5851 5850 5849 5848 5847 5846 5845 5844 5843
5848 5849 5850 5850 5851 5851 5852 5852 5853 5853 5853 5853 5853 5853 5852 5852 5852 5852 5852 5852 5852 5852 5852 5852 5852 5851 5851 5851 5851 5851 5851 5850 5849 5848 5847 5846 5845 5844 5842 5841 5839 5839 5838
5843 5844 5845 5847 5847 5848 5849 5849 5849 5850 5850 5850 5850 5849 5849 5848 5848 5848 5848 5848 5848 5848 5848 5848 5848 5848 5848 5847 5847 5847 5847 5846 5845 5843 5842 5841 5840 5838 5837 5835 5834 5833 5832
5838 5840 5841 5842 5843 5844 5845 5845 5845 5846 5846 5846 5846 5845 5845 5845 5844 5844 5844 5844 5844 5844 5844 5844 5844 5844 5844 5844 5844 5844 5843 5842 5841 5839 5838 5837 5836 5834 5832 5830 5829 5828 5827
5834 5835 5837 5838 5839 5840 5840 5840 5841 5841 5842 5842 5842 5842 5841 5841 5840 5840 5840 5840 5840 5840 5840 5841 5840 5841 5840 5840 5840 5840 5839 5838 5837 5835 5834 5833 5832 5830 5828 5826 5825 5824 5822
5829 5830 5831 5833 5834 5835 5835 5836 5836 5836 5837 5838 5838 5838 5838 5837 5837 5837 5837 5837 5837 5837 5836 5837 5836 5836 5836 5836 5835 5835 5834 5833 5832 5831 5830 5828 5827 5825 5823 5822 5821 5819 5818
5824 5825 5826 5828 5829 5830 5831 5831 5831 5832 5833 5833 5833 5833 5833 5834 5834 5834 5834 5834 5834 5833 5832 5832 5832 5831 5831 5830 5830 5830 5829 5827 5826 5825 5824 5822 5821 5820 5819 5817 5816 5814 5813
5818 5820 5821 5822 5823 5824 5825 5825 5826 5827 5828 5828 5829 5829 5829 5830 5830 5831 5831 5831 5830 5829 5828 5828 5827 5826 5826 5825 5825 5824 5822 5820 5819 5817 5816 5815 5814 5813 5812 5811 5809 5808 5807
5813 5814 5815 5817 5818 5819 5819 5819 5820 5821 5822 5822 5823 5824 5825 5825 5826 5826 5827 5826 5826 5825 5824 5823 5822 5821 5821 5820 5819 5818 5816 5813 5811 5810 5808 5808 5807 5806 5805 5804 5802 5801 5800
5806 5808 5809 5810 5812 5812 5813 5813 5814 5815 5815 5816 5818 5819 5819 5820 5820 5820 5821 5821 5821 5820 5819 5818 5817 5816 5815 5814 5813 5812 5809 5807 5805 5803 5801 5800 5799 5798 5797 5796 5795 5794 5793
5798 5800 5801 5803 5805 5806 5807 5807 5808 5808 5809 5810 5811 5812 5814 5814 5815 5815 5815 5815 5815 5814 5813 5812 5811 5810 5809 5808 5807 5805 5803 5800 5798 5796 5794 5792 5791 5790 5789 5788 5788 5787 5786
5792 5793 5794 5796 5798 5799 5801 5801 5802 5802 5802 5803 5804 5806 5807 5808 5809 5809 5809 5809 5809 5808 5807 5806 5805 5804 5803 5801 5800 5798 5795 5793 5791 5789 5787 5785 5784 5783 5782 5781 5780 5779 5778
5785 5786 5787 5788 5790 5792 5793 5794 5795 5795 5796 5797 5798 5799 5801 5802 5802 5802 5803 5803 5802 5801 5800 5800 5798 5797 5796 5794 5792 5790 5788 5786 5783 5781 5780 5778 5777 5776 5774 5773 5772 5771 5770
5778 5779 5781 5782 5783 5784 5785 5786 5787 5788 5790 5790 5791 5793 5794 5795 5795 5795 5796 5795 5795 5794 5793 5792 5791 5790 5789 5787 5785 5782 5780 5778 5775 5773 5772 5771 5769 5768 5766 5765 5763 5762 5760
5770 5772 5773 5775 5776 5777 5777 5778 5780 5781 5783 5784 5785 5786 5786 5787 5787 5788 5788 5788 5787 5787 5786 5785 5784 5783 5781 5779 5777 5774 5772 5770 5768 5766 5764 5763 5761 5759 5757 5755 5753 5752 5750
5760 5763 5765 5766 5768 5769 5770 5771 5772 5773 5775 5776 5777 5778 5779 5779 5780 5780 5780 5780 5780 5779 5778 5777 5776 5775 5773 5771 5769 5767 5764 5762 5759 5757 5755 5753 5751 5749 5747 5744 5742 5740 5738
5750 5752 5755 5756 5758 5760 5762 5763 5763 5764 5765 5768 5770 5771 5772 5772 5772 5773 5773 5773 5772 5771 5770 5769 5768 5767 5765 5763 5761 5759 5756 5754 5751 5749 5746 5744 5741 5739 5736 5733 5731 5729 5726
5740 5742 5743 5745 5747 5749 5751 5753 5754 5754 5756 5759 5762 5764 5764 5763 5764 5765 5765 5765 5765 5764 5763 5762 5760 5759 5757 5755 5753 5751 5748 5746 5743 5741 5737 5734 5731 5727 5724 5722 5719 5717 5714
5728 5729 5731 5734 5736 5738 5740 5742 5744 5746 5748 5751 5753 5754 5754 5755 5755 5756 5757 5757 5757 5756 5755 5754 5753 5751 5750 5747 5745 5742 5740 5737 5734 5731 5728 5724 5720 5717 5713 5710 5707 5704 5702
5716 5717 5718 5720 5723 5726 5728 5731 5734 5736 5739 5741 5742 5743 5745 5746 5747 5747 5748 5748 5748 5748 5747 5746 5745 5744 5742 5740 5737 5734 5731 5728 5725 5721 5718 5714 5710 5706 5701 5697 5694 5691 5688
5702 5703 5704 5705 5708 5711 5714 5718 5721 5724 5727 5729 5731 5733 5734 5735 5737 5738 5739 5739 5739 5739 5739 5738 5737 5736 5734 5731 5728 5725 5722 5719 5716 5712 5709 5705 5701 5695 5690 5684 5680 5677 5674